• In Romania
  • List of Countries
  • For 7 days
  • Water Temperature
  • Satellite Maps
  • Weather Map
  • Weather Widgets
  • user-avatar
    Login

    Hourly Weather Nizhnebalkovskiy

    Today, 25 September, Tuesday

    Time Temperature Precipitation Wind Pressure Humidity
    00:00 +18°C° 0 mm 3 mps 728 mmHg 77%
    01:00 +18°C° 0 mm 3 mps 728 mmHg 76%
    02:00 +17°C° 0 mm 2 mps 727 mmHg 75%
    03:00 +17°C° 0 mm 2 mps 727 mmHg 74%
    04:00 +17°C° 0 mm 2 mps 727 mmHg 73%
    05:00 +17°C° 0 mm 2 mps 727 mmHg 71%
    06:00 +17°C° 0 mm 2 mps 727 mmHg 69%
    07:00 +19°C° 0 mm 2 mps 727 mmHg 64%
    08:00 +21°C° 0 mm 2 mps 727 mmHg 58%
    09:00 +25°C° 0 mm 2 mps 726 mmHg 52%
    10:00 +26°C° 0 mm 2 mps 726 mmHg 49%
    11:00 +28°C° 0 mm 2 mps 726 mmHg 45%
    12:00 +29°C° 0 mm 2 mps 726 mmHg 41%
    13:00 +30°C° 0 mm 2 mps 726 mmHg 40%
    14:00 +30°C° 0 mm 2 mps 726 mmHg 39%
    15:00 +30°C° 0 mm 2 mps 726 mmHg 38%
    16:00 +29°C° 0.1 mm 3 mps 727 mmHg 46%
    17:00 +27°C° 0.1 mm 3 mps 727 mmHg 53%
    18:00 +25°C° 0.1 mm 4 mps 728 mmHg 61%
    19:00 +22°C° 0.5 mm 4 mps 728 mmHg 68%
    20:00 +20°C° 0.5 mm 4 mps 729 mmHg 75%
    21:00 +17°C° 0.5 mm 5 mps 729 mmHg 82%
    22:00 +17°C° 0.1 mm 5 mps 729 mmHg 83%
    23:00 +17°C° 0.1 mm 4 mps 730 mmHg 83%

    Tomorrow, 26 September, Wednesday

    Time Temperature Precipitation Wind Pressure Humidity
    00:00 +15°C° 0.1 mm 4 mps 730 mmHg 83%
    01:00 +15°C° 0.1 mm 4 mps 730 mmHg 83%
    02:00 +14°C° 0.1 mm 4 mps 731 mmHg 83%
    03:00 +13°C° 0.1 mm 4 mps 731 mmHg 83%
    04:00 +13°C° 0.1 mm 4 mps 731 mmHg 82%
    05:00 +12°C° 0.1 mm 4 mps 732 mmHg 81%
    06:00 +12°C° 0.1 mm 3 mps 732 mmHg 81%
    07:00 +12°C° 0.2 mm 3 mps 732 mmHg 81%
    08:00 +11°C° 0.2 mm 3 mps 733 mmHg 81%
    09:00 +11°C° 0.2 mm 3 mps 733 mmHg 81%
    10:00 +11°C° 0.1 mm 3 mps 734 mmHg 80%
    11:00 +11°C° 0.1 mm 3 mps 734 mmHg 79%
    12:00 +12°C° 0.1 mm 2 mps 734 mmHg 78%
    13:00 +13°C° 0 mm 2 mps 734 mmHg 75%
    14:00 +13°C° 0 mm 2 mps 734 mmHg 72%
    15:00 +13°C° 0 mm 1 mps 734 mmHg 69%
    16:00 +13°C° 0.1 mm 1 mps 734 mmHg 71%
    17:00 +13°C° 0.1 mm 1 mps 735 mmHg 73%
    18:00 +13°C° 0.1 mm 1 mps 735 mmHg 75%
    19:00 +13°C° 0.2 mm 1 mps 735 mmHg 77%
    20:00 +12°C° 0.2 mm 1 mps 735 mmHg 78%
    21:00 +12°C° 0.2 mm 1 mps 735 mmHg 80%
    22:00 +12°C° 0.1 mm 1 mps 735 mmHg 81%
    23:00 +12°C° 0.1 mm 1 mps 735 mmHg 82%

    Day after tomorrow, 27 September, Thursday

    Time Temperature Precipitation Wind Pressure Humidity
    00:00 +11°C° 0.1 mm 1 mps 735 mmHg 83%
    01:00 +11°C° 0.1 mm 1 mps 735 mmHg 84%
    02:00 +11°C° 0.1 mm 1 mps 735 mmHg 84%
    03:00 +11°C° 0.1 mm 1 mps 735 mmHg 85%
    04:00 +11°C° 0.1 mm 1 mps 735 mmHg 85%
    05:00 +11°C° 0.1 mm 1 mps 736 mmHg 85%
    06:00 +10°C° 0.1 mm 0 mps 736 mmHg 86%
    07:00 +11°C° 0.3 mm 1 mps 736 mmHg 83%
    08:00 +12°C° 0.3 mm 1 mps 736 mmHg 79%
    09:00 +12°C° 0.3 mm 1 mps 736 mmHg 76%
    10:00 +14°C° 0 mm 2 mps 736 mmHg 71%
    11:00 +15°C° 0 mm 2 mps 736 mmHg 65%
    12:00 +16°C° 0 mm 2 mps 736 mmHg 60%
    13:00 +17°C° 0 mm 2 mps 735 mmHg 58%
    14:00 +17°C° 0 mm 2 mps 735 mmHg 56%
    15:00 +18°C° 0 mm 2 mps 735 mmHg 55%
    16:00 +17°C° 0 mm 2 mps 735 mmHg 59%
    17:00 +16°C° 0 mm 2 mps 735 mmHg 63%
    18:00 +15°C° 0 mm 1 mps 735 mmHg 67%
    19:00 +14°C° 0 mm 1 mps 735 mmHg 71%
    20:00 +14°C° 0 mm 1 mps 735 mmHg 74%
    21:00 +13°C° 0 mm 1 mps 735 mmHg 78%
    22:00 +13°C° 0 mm 1 mps 735 mmHg 79%
    23:00 +13°C° 0 mm 1 mps 735 mmHg 80%

    28 September, Friday

    Time Temperature Precipitation Wind Pressure Humidity
    00:00 +12°C° 0 mm 1 mps 735 mmHg 81%
    01:00 +12°C° 0 mm 1 mps 735 mmHg 81%
    02:00 +12°C° 0 mm 1 mps 735 mmHg 81%
    03:00 +12°C° 0 mm 1 mps 735 mmHg 81%
    04:00 +11°C° 0 mm 1 mps 735 mmHg 81%
    05:00 +11°C° 0 mm 1 mps 735 mmHg 80%
    06:00 +11°C° 0 mm 1 mps 735 mmHg 80%
    07:00 +12°C° 0 mm 1 mps 735 mmHg 72%
    08:00 +14°C° 0 mm 1 mps 735 mmHg 65%
    09:00 +16°C° 0 mm 1 mps 735 mmHg 58%
    10:00 +18°C° 0 mm 1 mps 735 mmHg 55%
    11:00 +19°C° 0 mm 2 mps 734 mmHg 52%
    12:00 +20°C° 0 mm 2 mps 734 mmHg 49%
    13:00 +21°C° 0 mm 2 mps 734 mmHg 49%
    14:00 +21°C° 0 mm 3 mps 733 mmHg 48%
    15:00 +22°C° 0 mm 3 mps 733 mmHg 48%
    16:00 +21°C° 0 mm 3 mps 733 mmHg 53%
    17:00 +19°C° 0 mm 3 mps 733 mmHg 58%
    18:00 +18°C° 0 mm 2 mps 732 mmHg 63%
    19:00 +17°C° 0 mm 2 mps 732 mmHg 66%
    20:00 +16°C° 0 mm 2 mps 732 mmHg 69%
    21:00 +15°C° 0 mm 2 mps 732 mmHg 71%
    22:00 +15°C° 0 mm 2 mps 732 mmHg 71%
    23:00 +15°C° 0 mm 2 mps 731 mmHg 72%

    29 September, Saturday

    Time Temperature Precipitation Wind Pressure Humidity
    00:00 +15°C° 0 mm 2 mps 731 mmHg 72%
    01:00 +14°C° 0 mm 2 mps 731 mmHg 71%
    02:00 +14°C° 0 mm 2 mps 731 mmHg 71%
    03:00 +14°C° 0 mm 1 mps 731 mmHg 70%
    04:00 +14°C° 0 mm 1 mps 730 mmHg 71%
    05:00 +13°C° 0 mm 1 mps 730 mmHg 72%
    06:00 +13°C° 0 mm 1 mps 730 mmHg 73%
    07:00 +15°C° 0 mm 2 mps 730 mmHg 69%
    08:00 +17°C° 0 mm 2 mps 730 mmHg 65%
    09:00 +19°C° 0 mm 2 mps 730 mmHg 61%
    10:00 +20°C° 0 mm 3 mps 729 mmHg 58%
    11:00 +22°C° 0 mm 3 mps 729 mmHg 55%
    12:00 +23°C° 0 mm 4 mps 729 mmHg 53%
    13:00 +23°C° 0 mm 4 mps 729 mmHg 53%
    14:00 +25°C° 0 mm 4 mps 728 mmHg 54%
    15:00 +25°C° 0 mm 4 mps 728 mmHg 55%
    16:00 +22°C° 0 mm 4 mps 728 mmHg 61%
    17:00 +21°C° 0 mm 3 mps 728 mmHg 67%
    18:00 +20°C° 0 mm 3 mps 728 mmHg 74%
    19:00 +19°C° 0 mm 2 mps 728 mmHg 76%
    20:00 +18°C° 0 mm 2 mps 728 mmHg 78%
    21:00 +18°C° 0 mm 2 mps 728 mmHg 81%
    22:00 +17°C° 0 mm 2 mps 728 mmHg 81%
    23:00 +17°C° 0 mm 2 mps 728 mmHg 80%

    30 September, Sunday

    Time Temperature Precipitation Wind Pressure Humidity
    00:00 +17°C° 0 mm 2 mps 728 mmHg 80%
    01:00 +17°C° 0 mm 2 mps 728 mmHg 79%
    02:00 +16°C° 0 mm 2 mps 728 mmHg 79%
    03:00 +16°C° 0 mm 2 mps 728 mmHg 78%
    04:00 +16°C° 0 mm 2 mps 728 mmHg 78%
    05:00 +16°C° 0 mm 1 mps 728 mmHg 78%
    06:00 +15°C° 0 mm 1 mps 728 mmHg 78%
    07:00 +18°C° 0 mm 1 mps 728 mmHg 73%
    08:00 +19°C° 0 mm 2 mps 729 mmHg 69%
    09:00 +21°C° 0 mm 2 mps 729 mmHg 64%
    10:00 +23°C° 0 mm 2 mps 729 mmHg 60%
    11:00 +25°C° 0 mm 3 mps 729 mmHg 55%
    12:00 +26°C° 0 mm 3 mps 729 mmHg 51%
    13:00 +26°C° 0 mm 4 mps 729 mmHg 51%
    14:00 +27°C° 0 mm 4 mps 729 mmHg 50%
    15:00 +27°C° 0 mm 4 mps 729 mmHg 50%
    16:00 +26°C° 0 mm 4 mps 729 mmHg 56%
    17:00 +24°C° 0 mm 3 mps 729 mmHg 62%
    18:00 +22°C° 0 mm 3 mps 729 mmHg 68%
    19:00 +21°C° 0 mm 3 mps 729 mmHg 70%
    20:00 +20°C° 0 mm 3 mps 729 mmHg 73%
    21:00 +20°C° 0 mm 3 mps 729 mmHg 76%
    22:00 +19°C° 0 mm 3 mps 728 mmHg 77%
    23:00 +19°C° 0 mm 3 mps 728 mmHg 77%
    Show more